Precipitable_Water
1.32 1.26 1.26 1.24 1.27 1.25 1.29 1.33 1.34 1.37 1.38 1.34 1.30 1.31 1.32 1.33 1.33 1.37 1.47 1.49 1.51 1.50 1.50 1.48 1.46 1.45 1.44 1.37 1.30 1.25 1.23 1.26 1.30 1.31 1.31 1.31 1.33 1.32 1.32 1.28 1.27 1.28 1.29 1.27 1.31 1.36 1.33 1.30 1.33 1.32 1.26 1.17 1.17 1.22 1.25 1.28 1.27 1.24 1.24 1.22 1.18 1.21 1.17 1.11 1.01 0.97 1.08 1.22 1.16 1.11 1.13 1.11 1.05 1.11 1.07 1.08 1.13 1.20 1.24 1.23 1.22 1.20 1.19 1.19 1.21
1.32 1.28 1.27 1.28 1.23 1.24 1.28 1.32 1.33 1.36 1.34 1.34 1.30 1.31 1.33 1.33 1.36 1.38 1.38 1.44 1.49 1.47 1.47 1.47 1.45 1.42 1.38 1.33 1.27 1.25 1.20 1.18 1.24 1.27 1.26 1.26 1.27 1.29 1.31 1.29 1.26 1.25 1.24 1.20 1.31 1.36 1.36 1.31 1.30 1.29 1.25 1.18 1.18 1.19 1.24 1.23 1.21 1.19 1.18 1.18 1.16 1.17 1.23 1.10 1.04 0.99 0.90 1.02 1.07 1.14 1.12 1.16 1.02 1.08 1.01 1.03 1.10 1.17 1.19 1.21 1.25 1.27 1.26 1.25 1.24
1.34 1.33 1.28 1.27 1.25 1.27 1.33 1.33 1.32 1.32 1.29 1.31 1.29 1.31 1.35 1.37 1.41 1.39 1.39 1.42 1.47 1.45 1.43 1.41 1.38 1.36 1.34 1.30 1.24 1.21 1.16 1.14 1.19 1.22 1.23 1.24 1.22 1.24 1.26 1.26 1.21 1.20 1.18 1.18 1.23 1.30 1.32 1.30 1.28 1.29 1.29 1.22 1.20 1.19 1.22 1.21 1.21 1.17 1.15 1.17 1.16 1.17 1.20 1.19 1.10 0.99 0.96 0.93 1.00 1.00 1.05 1.09 1.01 0.99 1.06 1.12 1.17 1.20 1.19 1.21 1.24 1.26 1.27 1.26 1.25
1.34 1.32 1.30 1.27 1.28 1.31 1.34 1.39 1.34 1.30 1.28 1.28 1.28 1.31 1.37 1.41 1.44 1.41 1.42 1.45 1.45 1.45 1.45 1.41 1.37 1.34 1.29 1.26 1.22 1.18 1.15 1.11 1.13 1.17 1.19 1.21 1.20 1.18 1.20 1.22 1.21 1.21 1.23 1.21 1.20 1.26 1.29 1.27 1.25 1.24 1.24 1.20 1.19 1.19 1.20 1.23 1.23 1.23 1.21 1.20 1.20 1.19 1.23 1.23 1.21 1.11 1.07 0.98 0.95 0.95 1.02 1.06 1.12 1.18 1.24 1.27 1.25 1.24 1.26 1.27 1.28 1.24 1.23 1.24 1.23
1.32 1.32 1.29 1.28 1.31 1.31 1.33 1.37 1.36 1.33 1.31 1.32 1.31 1.35 1.41 1.48 1.46 1.43 1.44 1.43 1.46 1.43 1.42 1.42 1.38 1.36 1.30 1.27 1.22 1.18 1.15 1.11 1.07 1.09 1.15 1.20 1.19 1.16 1.16 1.14 1.16 1.23 1.27 1.26 1.23 1.24 1.28 1.26 1.29 1.30 1.26 1.21 1.22 1.21 1.23 1.22 1.26 1.27 1.23 1.22 1.21 1.23 1.23 1.23 1.21 1.20 1.13 1.06 1.03 1.04 1.07 1.07 1.13 1.18 1.22 1.19 1.22 1.24 1.27 1.22 1.21 1.20 1.20 1.23 1.23
1.31 1.33 1.30 1.31 1.31 1.28 1.30 1.33 1.34 1.34 1.35 1.36 1.38 1.41 1.47 1.52 1.54 1.51 1.50 1.47 1.50 1.46 1.40 1.40 1.39 1.36 1.33 1.30 1.25 1.19 1.18 1.15 1.09 1.07 1.12 1.19 1.20 1.17 1.14 1.11 1.11 1.20 1.27 1.28 1.28 1.30 1.30 1.31 1.33 1.33 1.29 1.25 1.21 1.21 1.23 1.23 1.26 1.25 1.22 1.21 1.23 1.24 1.23 1.22 1.22 1.21 1.19 1.15 1.11 1.03 1.03 1.02 1.03 1.07 1.11 1.12 1.07 1.03 1.02 1.08 1.16 1.18 1.17 1.17 1.18
1.27 1.32 1.34 1.30 1.30 1.28 1.29 1.30 1.35 1.36 1.36 1.40 1.46 1.51 1.54 1.56 1.59 1.58 1.59 1.54 1.53 1.48 1.43 1.42 1.42 1.39 1.38 1.35 1.29 1.25 1.23 1.20 1.14 1.12 1.14 1.17 1.20 1.18 1.13 1.09 1.08 1.14 1.22 1.25 1.30 1.32 1.31 1.32 1.34 1.36 1.33 1.28 1.23 1.20 1.23 1.25 1.25 1.24 1.25 1.26 1.28 1.25 1.23 1.22 1.23 1.22 1.21 1.18 1.16 1.10 1.03 1.04 1.03 0.95 1.03 1.09 1.09 1.06 0.98 1.03 1.09 1.14 1.15 1.13 1.07
1.25 1.30 1.34 1.32 1.30 1.29 1.33 1.34 1.35 1.39 1.40 1.44 1.49 1.54 1.58 1.60 1.64 1.70 1.71 1.64 1.60 1.60 1.55 1.50 1.50 1.47 1.45 1.43 1.40 1.37 1.33 1.27 1.21 1.16 1.16 1.19 1.20 1.15 1.10 1.07 1.07 1.12 1.18 1.25 1.30 1.33 1.33 1.32 1.32 1.37 1.37 1.34 1.27 1.24 1.25 1.25 1.27 1.26 1.30 1.30 1.27 1.25 1.23 1.25 1.25 1.24 1.22 1.19 1.12 1.01 0.97 0.90 0.90 0.95 0.98 1.00 0.99 1.01 1.07 1.04 0.95 0.95 1.02 1.10 1.09
1.23 1.26 1.30 1.32 1.33 1.35 1.38 1.41 1.41 1.40 1.43 1.47 1.49 1.53 1.58 1.63 1.68 1.71 1.73 1.72 1.74 1.74 1.73 1.69 1.63 1.60 1.61 1.59 1.55 1.54 1.48 1.39 1.32 1.26 1.26 1.25 1.23 1.18 1.09 1.05 1.05 1.09 1.18 1.26 1.32 1.36 1.37 1.37 1.35 1.41 1.46 1.40 1.33 1.31 1.33 1.34 1.29 1.24 1.26 1.28 1.27 1.26 1.24 1.23 1.24 1.25 1.22 1.17 1.07 0.97 0.88 0.86 0.86 0.86 0.86 0.89 0.90 0.91 0.99 1.01 0.95 0.98 1.02 1.00 1.03
1.24 1.24 1.26 1.32 1.40 1.43 1.43 1.45 1.44 1.46 1.47 1.49 1.52 1.56 1.60 1.65 1.69 1.71 1.74 1.76 1.78 1.80 1.79 1.78 1.73 1.69 1.67 1.66 1.66 1.66 1.62 1.57 1.49 1.43 1.35 1.26 1.24 1.21 1.13 1.06 1.08 1.14 1.21 1.27 1.33 1.36 1.38 1.39 1.41 1.51 1.49 1.43 1.38 1.37 1.36 1.36 1.35 1.30 1.27 1.26 1.25 1.25 1.25 1.24 1.24 1.25 1.20 1.10 0.98 0.89 0.83 0.79 0.80 0.85 0.88 0.94 1.00 1.02 0.98 0.99 0.93 0.96 0.95 0.91 0.93
1.27 1.25 1.27 1.36 1.43 1.46 1.48 1.49 1.50 1.48 1.51 1.55 1.58 1.60 1.62 1.67 1.71 1.73 1.77 1.78 1.78 1.80 1.81 1.79 1.75 1.72 1.68 1.66 1.65 1.65 1.65 1.63 1.59 1.53 1.37 1.35 1.28 1.22 1.17 1.13 1.16 1.22 1.29 1.34 1.35 1.37 1.44 1.48 1.51 1.51 1.49 1.41 1.38 1.34 1.33 1.35 1.35 1.33 1.31 1.29 1.31 1.29 1.24 1.22 1.22 1.23 1.16 1.05 0.95 0.86 0.79 0.76 0.80 0.87 0.90 0.94 0.97 0.98 0.97 0.98 0.96 0.93 0.86 0.80 0.72
1.26 1.27 1.32 1.41 1.46 1.46 1.47 1.50 1.52 1.53 1.56 1.57 1.60 1.64 1.68 1.71 1.72 1.73 1.74 1.75 1.76 1.81 1.81 1.80 1.76 1.74 1.69 1.65 1.63 1.61 1.63 1.64 1.59 1.53 1.37 1.34 1.28 1.21 1.18 1.17 1.24 1.30 1.36 1.39 1.42 1.46 1.48 1.46 1.45 1.42 1.45 1.45 1.42 1.41 1.40 1.38 1.34 1.33 1.33 1.33 1.34 1.37 1.38 1.31 1.25 1.21 1.15 1.00 0.84 0.77 0.76 0.77 0.84 0.89 0.92 0.95 0.96 0.97 0.99 0.98 0.93 0.87 0.82 0.78 0.76
1.30 1.28 1.36 1.43 1.48 1.50 1.50 1.51 1.53 1.55 1.57 1.60 1.65 1.69 1.69 1.69 1.69 1.69 1.68 1.74 1.81 1.79 1.77 1.74 1.72 1.73 1.69 1.63 1.60 1.57 1.57 1.59 1.55 1.52 1.39 1.29 1.25 1.21 1.21 1.27 1.36 1.37 1.39 1.41 1.45 1.48 1.52 1.43 1.37 1.47 1.54 1.53 1.53 1.56 1.53 1.47 1.42 1.40 1.39 1.37 1.37 1.39 1.39 1.39 1.39 1.32 1.19 0.97 0.82 0.78 0.79 0.84 0.87 0.92 0.99 1.00 1.03 0.94 0.94 0.88 0.85 0.83 0.81 0.76 0.76
1.34 1.33 1.39 1.45 1.50 1.51 1.53 1.53 1.53 1.55 1.60 1.63 1.65 1.65 1.65 1.62 1.65 1.69 1.71 1.72 1.69 1.66 1.68 1.69 1.71 1.69 1.67 1.64 1.60 1.57 1.54 1.55 1.52 1.51 1.47 1.39 1.27 1.24 1.27 1.31 1.37 1.39 1.41 1.43 1.43 1.48 1.48 1.46 1.43 1.52 1.58 1.55 1.53 1.49 1.49 1.50 1.46 1.43 1.39 1.37 1.38 1.39 1.41 1.41 1.35 1.25 1.13 0.98 0.89 0.83 0.89 0.97 0.93 0.97 1.04 1.07 1.00 0.93 0.88 0.81 0.81 0.77 0.75 0.73 0.77
1.38 1.37 1.38 1.45 1.50 1.52 1.53 1.53 1.54 1.57 1.59 1.61 1.61 1.60 1.59 1.62 1.66 1.66 1.61 1.59 1.58 1.60 1.64 1.64 1.65 1.65 1.65 1.62 1.58 1.55 1.53 1.53 1.50 1.48 1.48 1.39 1.27 1.27 1.25 1.31 1.35 1.37 1.42 1.44 1.45 1.45 1.42 1.48 1.54 1.58 1.58 1.52 1.49 1.48 1.50 1.48 1.44 1.40 1.35 1.34 1.37 1.40 1.39 1.31 1.23 1.15 1.03 0.94 0.92 0.93 0.97 1.02 1.04 1.06 1.06 1.05 1.00 0.95 0.91 0.85 0.82 0.79 0.80 0.82 0.82
1.37 1.37 1.37 1.43 1.48 1.52 1.52 1.53 1.54 1.54 1.56 1.58 1.57 1.56 1.59 1.59 1.54 1.54 1.52 1.54 1.61 1.65 1.65 1.66 1.64 1.63 1.63 1.62 1.58 1.53 1.55 1.54 1.49 1.47 1.46 1.37 1.27 1.25 1.28 1.28 1.30 1.34 1.36 1.40 1.41 1.45 1.50 1.50 1.52 1.57 1.57 1.55 1.47 1.47 1.50 1.49 1.42 1.38 1.35 1.37 1.38 1.34 1.28 1.26 1.19 1.09 1.02 1.01 1.01 1.01 1.03 1.05 1.05 1.05 1.03 0.99 0.96 0.93 0.90 0.89 0.89 0.85 0.82 0.77 0.71
1.37 1.37 1.39 1.45 1.51 1.55 1.56 1.53 1.51 1.53 1.55 1.53 1.53 1.53 1.50 1.49 1.49 1.51 1.49 1.51 1.53 1.57 1.57 1.60 1.63 1.60 1.60 1.58 1.53 1.52 1.49 1.48 1.47 1.46 1.47 1.36 1.26 1.26 1.28 1.26 1.27 1.27 1.29 1.37 1.44 1.44 1.51 1.51 1.47 1.46 1.49 1.49 1.48 1.45 1.47 1.48 1.43 1.40 1.38 1.37 1.33 1.28 1.23 1.19 1.10 1.02 0.98 0.99 1.02 1.05 1.06 1.03 1.01 1.01 1.01 0.97 0.91 0.89 0.91 0.86 0.81 0.83 0.75 0.67 0.68
1.41 1.44 1.47 1.54 1.56 1.58 1.57 1.54 1.53 1.53 1.51 1.49 1.47 1.46 1.48 1.50 1.48 1.53 1.50 1.48 1.48 1.51 1.55 1.56 1.60 1.61 1.55 1.49 1.50 1.44 1.41 1.44 1.43 1.41 1.39 1.27 1.26 1.26 1.30 1.25 1.21 1.24 1.31 1.37 1.43 1.48 1.51 1.51 1.46 1.44 1.44 1.45 1.47 1.46 1.48 1.48 1.43 1.41 1.35 1.28 1.24 1.21 1.15 1.07 1.00 1.01 1.05 1.07 1.05 1.03 1.01 1.00 1.00 0.99 0.96 0.93 0.94 0.98 0.92 0.82 0.81 0.81 0.74 0.71 0.65
1.50 1.49 1.54 1.61 1.60 1.58 1.57 1.56 1.56 1.51 1.44 1.39 1.38 1.40 1.40 1.41 1.48 1.52 1.55 1.55 1.54 1.53 1.55 1.53 1.52 1.53 1.51 1.50 1.49 1.43 1.41 1.43 1.43 1.43 1.37 1.32 1.29 1.31 1.31 1.23 1.19 1.27 1.36 1.35 1.40 1.45 1.49 1.48 1.46 1.45 1.47 1.48 1.48 1.53 1.51 1.48 1.38 1.38 1.31 1.23 1.17 1.10 1.04 1.02 0.97 0.95 0.98 1.01 1.02 1.02 1.00 1.01 0.99 0.95 0.96 0.99 0.97 0.97 0.97 0.92 0.90 0.86 0.78 0.76 0.74
1.53 1.59 1.63 1.62 1.62 1.57 1.58 1.53 1.50 1.43 1.36 1.40 1.42 1.40 1.39 1.38 1.41 1.44 1.49 1.54 1.53 1.51 1.49 1.49 1.45 1.43 1.44 1.46 1.46 1.44 1.42 1.44 1.44 1.42 1.39 1.35 1.34 1.33 1.29 1.22 1.21 1.31 1.40 1.40 1.39 1.39 1.41 1.41 1.40 1.41 1.39 1.42 1.47 1.46 1.43 1.41 1.37 1.32 1.26 1.16 1.09 1.00 1.04 1.00 0.99 0.96 0.94 0.92 0.91 0.94 0.93 0.93 0.93 0.98 1.01 1.02 1.02 1.00 0.97 0.96 0.93 0.88 0.81 0.77 0.80
1.65 1.61 1.63 1.63 1.60 1.58 1.59 1.49 1.39 1.40 1.44 1.43 1.41 1.39 1.37 1.37 1.40 1.43 1.43 1.47 1.47 1.47 1.46 1.46 1.45 1.41 1.40 1.39 1.42 1.44 1.43 1.39 1.38 1.39 1.38 1.36 1.34 1.31 1.31 1.30 1.36 1.41 1.39 1.36 1.38 1.36 1.37 1.40 1.40 1.38 1.39 1.41 1.41 1.39 1.38 1.37 1.31 1.25 1.21 1.15 1.09 1.03 1.00 0.94 0.92 0.93 0.91 0.90 0.90 0.89 0.89 0.94 0.99 1.00 0.97 0.93 0.90 0.89 0.88 0.87 0.90 0.92 0.91 0.81 0.70
1.66 1.64 1.62 1.60 1.58 1.56 1.47 1.42 1.42 1.42 1.42 1.39 1.33 1.34 1.39 1.43 1.43 1.43 1.43 1.42 1.41 1.42 1.45 1.45 1.43 1.41 1.42 1.40 1.41 1.41 1.38 1.33 1.33 1.33 1.33 1.34 1.35 1.36 1.37 1.43 1.47 1.41 1.34 1.32 1.38 1.39 1.41 1.41 1.39 1.40 1.42 1.42 1.38 1.37 1.34 1.25 1.20 1.22 1.23 1.16 1.06 0.99 0.94 0.92 0.91 0.90 0.90 0.89 0.87 0.85 0.88 0.91 0.91 0.90 0.92 0.92 0.90 0.86 0.82 0.79 0.79 0.78 0.75 0.70 0.63
1.64 1.63 1.58 1.52 1.46 1.42 1.41 1.41 1.41 1.41 1.37 1.36 1.34 1.36 1.43 1.43 1.42 1.41 1.38 1.38 1.39 1.39 1.41 1.41 1.39 1.37 1.36 1.37 1.37 1.37 1.42 1.36 1.37 1.34 1.34 1.36 1.39 1.42 1.44 1.46 1.48 1.46 1.41 1.38 1.41 1.47 1.50 1.44 1.42 1.44 1.43 1.40 1.35 1.33 1.31 1.27 1.26 1.24 1.17 1.05 0.98 0.94 0.94 0.92 0.91 0.89 0.85 0.83 0.82 0.83 0.88 0.90 0.88 0.89 0.89 0.86 0.83 0.81 0.80 0.79 0.77 0.72 0.66 0.59 0.56
1.62 1.53 1.45 1.41 1.38 1.37 1.36 1.36 1.33 1.31 1.33 1.36 1.38 1.40 1.42 1.43 1.43 1.40 1.39 1.38 1.38 1.38 1.40 1.40 1.38 1.33 1.27 1.29 1.38 1.39 1.41 1.42 1.43 1.43 1.43 1.44 1.46 1.47 1.45 1.45 1.48 1.50 1.47 1.41 1.44 1.51 1.48 1.42 1.40 1.39 1.37 1.32 1.27 1.29 1.29 1.27 1.24 1.17 1.05 0.98 0.96 0.94 0.92 0.89 0.86 0.82 0.81 0.82 0.83 0.85 0.86 0.87 0.88 0.87 0.85 0.82 0.80 0.79 0.77 0.74 0.69 0.63 0.61 0.61 0.60
1.48 1.38 1.33 1.30 1.28 1.28 1.30 1.29 1.30 1.33 1.39 1.41 1.40 1.40 1.40 1.42 1.38 1.40 1.40 1.40 1.40 1.38 1.39 1.39 1.34 1.30 1.28 1.29 1.32 1.36 1.41 1.45 1.46 1.46 1.47 1.46 1.47 1.46 1.45 1.45 1.46 1.47 1.45 1.45 1.44 1.42 1.37 1.36 1.33 1.30 1.26 1.23 1.27 1.28 1.27 1.23 1.13 1.03 0.98 0.95 0.94 0.91 0.85 0.82 0.81 0.82 0.82 0.81 0.85 0.85 0.84 0.86 0.87 0.85 0.84 0.82 0.79 0.74 0.67 0.63 0.63 0.63 0.62 0.60 0.56
1.32 1.25 1.23 1.21 1.20 1.20 1.20 1.25 1.31 1.36 1.38 1.43 1.42 1.45 1.41 1.42 1.41 1.40 1.41 1.41 1.42 1.39 1.37 1.36 1.31 1.29 1.28 1.33 1.34 1.36 1.43 1.45 1.46 1.46 1.46 1.46 1.45 1.44 1.44 1.45 1.45 1.42 1.36 1.29 1.29 1.32 1.33 1.31 1.27 1.24 1.25 1.25 1.24 1.21 1.15 1.07 0.98 0.96 0.96 0.96 0.92 0.86 0.85 0.86 0.86 0.84 0.84 0.83 0.81 0.80 0.81 0.83 0.83 0.85 0.84 0.78 0.71 0.68 0.67 0.63 0.59 0.56 0.53 0.49 0.44
1.21 1.19 1.17 1.17 1.20 1.22 1.24 1.28 1.33 1.40 1.47 1.49 1.48 1.47 1.46 1.44 1.44 1.40 1.40 1.42 1.42 1.40 1.36 1.32 1.31 1.31 1.30 1.34 1.38 1.40 1.42 1.41 1.40 1.42 1.46 1.46 1.45 1.44 1.42 1.37 1.33 1.27 1.21 1.22 1.24 1.26 1.25 1.23 1.22 1.22 1.22 1.22 1.17 1.09 1.04 1.02 0.99 0.97 0.97 0.96 0.92 0.90 0.92 0.90 0.87 0.85 0.81 0.78 0.77 0.78 0.80 0.82 0.85 0.84 0.79 0.74 0.70 0.67 0.63 0.57 0.53 0.48 0.45 0.43 0.40
1.17 1.17 1.19 1.24 1.25 1.29 1.31 1.34 1.36 1.41 1.45 1.46 1.43 1.43 1.43 1.44 1.41 1.41 1.42 1.43 1.39 1.35 1.34 1.33 1.31 1.31 1.32 1.36 1.37 1.36 1.36 1.40 1.40 1.39 1.42 1.44 1.42 1.41 1.39 1.35 1.32 1.29 1.23 1.20 1.22 1.23 1.21 1.21 1.20 1.19 1.17 1.09 1.03 1.00 0.99 0.99 0.99 0.97 0.96 0.95 0.94 0.95 0.95 0.94 0.93 0.90 0.85 0.83 0.81 0.81 0.81 0.84 0.80 0.77 0.73 0.68 0.62 0.58 0.57 0.53 0.49 0.44 0.43 0.42 0.39
1.19 1.19 1.24 1.27 1.29 1.36 1.38 1.38 1.39 1.40 1.38 1.39 1.40 1.38 1.36 1.41 1.46 1.45 1.51 1.54 1.50 1.44 1.37 1.36 1.37 1.41 1.42 1.38 1.34 1.30 1.33 1.34 1.38 1.44 1.43 1.42 1.38 1.35 1.32 1.30 1.30 1.28 1.26 1.26 1.23 1.22 1.20 1.16 1.09 1.05 1.02 0.98 0.96 0.96 0.96 0.97 0.98 0.99 0.98 0.96 0.96 0.94 0.92 0.89 0.85 0.85 0.84 0.80 0.80 0.81 0.77 0.77 0.75 0.74 0.70 0.63 0.57 0.54 0.53 0.49 0.46 0.42 0.42 0.43 0.41
1.19 1.22 1.26 1.28 1.31 1.33 1.33 1.33 1.36 1.36 1.34 1.33 1.31 1.32 1.40 1.46 1.49 1.47 1.46 1.52 1.51 1.52 1.48 1.43 1.43 1.44 1.45 1.46 1.48 1.39 1.34 1.40 1.44 1.43 1.39 1.36 1.34 1.33 1.31 1.27 1.23 1.21 1.22 1.20 1.18 1.12 1.09 1.07 1.05 1.01 1.00 0.98 0.96 0.94 0.94 0.93 0.92 0.93 0.93 0.94 0.95 0.94 0.91 0.88 0.84 0.82 0.82 0.84 0.79 0.77 0.77 0.76 0.73 0.71 0.64 0.56 0.52 0.51 0.49 0.44 0.42 0.44 0.43 0.42 0.40
1.21 1.24 1.28 1.28 1.28 1.27 1.27 1.31 1.36 1.36 1.33 1.32 1.33 1.33 1.34 1.42 1.47 1.49 1.48 1.46 1.46 1.45 1.45 1.48 1.48 1.50 1.49 1.42 1.47 1.51 1.51 1.45 1.40 1.38 1.34 1.31 1.28 1.20 1.16 1.16 1.17 1.17 1.19 1.15 1.09 1.06 1.07 1.04 1.03 0.98 0.96 0.94 0.94 0.94 0.95 0.92 0.91 0.90 0.90 0.92 0.92 0.90 0.88 0.86 0.86 0.83 0.80 0.78 0.77 0.76 0.76 0.75 0.71 0.64 0.56 0.52 0.49 0.45 0.42 0.44 0.45 0.44 0.42 0.41 0.40
1.20 1.21 1.23 1.23 1.25 1.25 1.29 1.32 1.31 1.30 1.28 1.31 1.33 1.34 1.35 1.32 1.34 1.40 1.41 1.42 1.42 1.42 1.43 1.44 1.46 1.49 1.51 1.50 1.45 1.43 1.39 1.36 1.35 1.30 1.25 1.22 1.18 1.16 1.15 1.15 1.15 1.14 1.14 1.13 1.05 1.02 1.02 0.98 0.96 0.93 0.93 0.92 0.92 0.93 0.90 0.88 0.87 0.86 0.87 0.87 0.87 0.87 0.85 0.81 0.82 0.80 0.79 0.77 0.76 0.76 0.75 0.72 0.67 0.61 0.55 0.49 0.44 0.40 0.42 0.42 0.42 0.41 0.42 0.42 0.41
1.23 1.28 1.30 1.30 1.31 1.32 1.32 1.30 1.30 1.28 1.25 1.27 1.31 1.37 1.32 1.26 1.19 1.19 1.30 1.36 1.37 1.37 1.38 1.40 1.42 1.44 1.44 1.43 1.42 1.34 1.23 1.19 1.21 1.19 1.18 1.16 1.14 1.11 1.10 1.10 1.11 1.11 1.12 1.07 1.01 1.01 1.00 0.97 0.94 0.95 0.93 0.91 0.91 0.90 0.88 0.87 0.87 0.87 0.87 0.85 0.82 0.84 0.83 0.80 0.80 0.78 0.77 0.77 0.75 0.72 0.70 0.67 0.60 0.55 0.49 0.43 0.39 0.39 0.41 0.40 0.41 0.41 0.42 0.40 0.38
1.36 1.36 1.30 1.30 1.30 1.33 1.35 1.35 1.35 1.33 1.31 1.33 1.36 1.39 1.34 1.27 1.22 1.18 1.17 1.18 1.23 1.28 1.30 1.31 1.34 1.37 1.38 1.37 1.34 1.29 1.26 1.22 1.21 1.18 1.13 1.09 1.08 1.08 1.07 1.07 1.08 1.10 1.07 1.04 1.03 0.99 0.96 0.94 0.94 0.94 0.93 0.91 0.90 0.89 0.87 0.87 0.88 0.87 0.85 0.84 0.83 0.82 0.82 0.79 0.75 0.73 0.73 0.73 0.71 0.68 0.64 0.60 0.55 0.49 0.41 0.38 0.41 0.41 0.40 0.39 0.39 0.40 0.39 0.37 0.36
1.39 1.39 1.35 1.33 1.33 1.30 1.33 1.34 1.30 1.30 1.26 1.25 1.23 1.24 1.23 1.23 1.21 1.16 1.12 1.11 1.11 1.12 1.14 1.23 1.29 1.31 1.31 1.30 1.31 1.29 1.22 1.14 1.13 1.13 1.11 1.10 1.08 1.07 1.05 1.01 0.98 1.00 1.04 1.04 1.01 0.98 0.97 0.97 0.95 0.94 0.92 0.90 0.90 0.89 0.88 0.87 0.85 0.83 0.81 0.79 0.78 0.77 0.74 0.72 0.70 0.70 0.69 0.68 0.66 0.64 0.59 0.53 0.47 0.42 0.41 0.40 0.39 0.38 0.37 0.37 0.38 0.38 0.36 0.36 0.38
1.39 1.35 1.37 1.41 1.42 1.37 1.35 1.30 1.24 1.20 1.15 1.18 1.19 1.19 1.20 1.18 1.14 1.13 1.12 1.11 1.10 1.09 1.11 1.17 1.21 1.24 1.25 1.25 1.22 1.17 1.13 1.10 1.08 1.08 1.06 1.06 1.05 1.04 0.96 0.95 0.95 0.96 0.97 0.98 0.98 0.98 1.00 0.98 0.95 0.93 0.92 0.90 0.90 0.89 0.87 0.84 0.83 0.80 0.77 0.74 0.72 0.71 0.69 0.69 0.69 0.69 0.68 0.65 0.62 0.60 0.54 0.46 0.46 0.43 0.41 0.39 0.39 0.37 0.35 0.36 0.36 0.35 0.36 0.39 0.40
1.29 1.35 1.36 1.35 1.39 1.37 1.32 1.26 1.24 1.23 1.19 1.18 1.14 1.12 1.13 1.10 1.10 1.06 1.06 1.07 1.07 1.06 1.07 1.10 1.12 1.14 1.17 1.15 1.11 1.07 1.06 1.02 1.02 1.01 1.02 1.03 1.03 1.01 1.00 0.99 0.98 0.99 0.96 0.95 0.96 0.97 0.95 0.94 0.92 0.89 0.88 0.86 0.85 0.83 0.81 0.78 0.76 0.74 0.72 0.71 0.70 0.67 0.66 0.65 0.66 0.67 0.64 0.58 0.50 0.43 0.43 0.46 0.45 0.41 0.38 0.37 0.36 0.35 0.35 0.34 0.33 0.35 0.39 0.40 0.40
1.36 1.35 1.33 1.32 1.28 1.23 1.17 1.15 1.20 1.18 1.13 1.13 1.15 1.12 1.09 1.07 1.05 1.03 1.01 1.02 1.00 0.98 0.96 0.99 1.01 1.00 0.96 0.97 1.03 1.01 1.00 1.00 0.99 0.98 0.99 0.99 0.99 1.00 1.03 1.04 1.03 0.99 0.95 0.97 0.98 0.96 0.93 0.91 0.89 0.85 0.83 0.81 0.76 0.74 0.72 0.71 0.70 0.69 0.67 0.66 0.65 0.64 0.62 0.61 0.62 0.61 0.60 0.58 0.54 0.54 0.52 0.45 0.40 0.38 0.37 0.36 0.33 0.32 0.33 0.32 0.33 0.36 0.37 0.38 0.38
1.38 1.35 1.29 1.26 1.22 1.18 1.14 1.11 1.13 1.11 1.07 1.06 1.05 1.04 1.02 1.00 1.00 1.05 1.07 1.04 1.02 1.02 0.98 0.96 0.96 0.94 0.93 0.96 0.95 0.97 0.94 0.91 0.89 0.88 0.91 0.95 0.99 1.01 1.01 1.01 0.99 0.99 1.01 1.00 0.98 0.94 0.89 0.86 0.84 0.81 0.77 0.74 0.71 0.69 0.67 0.66 0.66 0.65 0.65 0.63 0.62 0.61 0.59 0.57 0.57 0.59 0.57 0.54 0.52 0.48 0.43 0.38 0.36 0.37 0.36 0.33 0.31 0.31 0.30 0.32 0.35 0.35 0.35 0.36 0.37
1.32 1.29 1.29 1.26 1.23 1.18 1.13 1.07 1.05 1.03 1.01 1.05 1.03 1.04 1.04 1.04 1.05 1.08 1.07 1.06 1.05 1.03 1.00 0.98 0.96 0.93 0.94 0.93 0.92 0.92 0.85 0.85 0.86 0.89 0.91 0.94 0.96 0.99 0.98 0.96 0.96 0.98 0.97 0.94 0.91 0.87 0.84 0.83 0.81 0.75 0.71 0.68 0.67 0.65 0.63 0.61 0.61 0.61 0.60 0.58 0.57 0.56 0.54 0.53 0.52 0.51 0.49 0.48 0.47 0.42 0.37 0.36 0.36 0.35 0.33 0.30 0.31 0.30 0.32 0.33 0.33 0.34 0.36 0.36 0.36
1.36 1.33 1.28 1.27 1.24 1.23 1.23 1.20 1.11 1.08 1.02 1.06 1.07 1.07 1.08 1.07 1.07 1.08 1.09 1.08 1.07 1.05 1.04 1.03 1.00 0.96 0.95 0.95 0.93 0.90 0.87 0.87 0.90 0.92 0.93 0.95 0.96 0.95 0.95 0.97 0.98 0.96 0.93 0.90 0.88 0.86 0.82 0.76 0.73 0.70 0.66 0.65 0.64 0.63 0.62 0.59 0.58 0.57 0.56 0.56 0.54 0.52 0.50 0.49 0.48 0.45 0.43 0.43 0.42 0.38 0.36 0.36 0.35 0.31 0.28 0.30 0.31 0.32 0.34 0.33 0.32 0.35 0.36 0.36 0.35
1.34 1.30 1.29 1.26 1.27 1.27 1.24 1.22 1.13 1.12 1.12 1.14 1.12 1.08 1.07 1.06 1.09 1.12 1.13 1.11 1.10 1.09 1.04 1.01 0.98 0.95 0.94 0.88 0.86 0.90 0.92 0.92 0.93 0.93 0.95 0.96 0.95 0.96 0.97 0.97 0.96 0.92 0.90 0.88 0.85 0.80 0.76 0.72 0.68 0.67 0.65 0.61 0.61 0.62 0.60 0.57 0.56 0.55 0.55 0.52 0.50 0.48 0.44 0.43 0.43 0.43 0.43 0.40 0.38 0.38 0.36 0.34 0.31 0.30 0.30 0.30 0.31 0.33 0.31 0.31 0.34 0.35 0.36 0.35 0.35
1.28 1.25 1.24 1.23 1.21 1.21 1.24 1.25 1.25 1.22 1.16 1.14 1.16 1.26 1.28 1.26 1.22 1.15 1.10 1.09 1.08 1.05 1.02 1.00 0.98 0.96 0.93 0.93 0.94 0.94 0.95 0.95 0.96 0.97 0.98 0.96 0.96 0.94 0.92 0.91 0.91 0.90 0.90 0.87 0.81 0.76 0.71 0.66 0.63 0.61 0.59 0.59 0.59 0.58 0.56 0.56 0.55 0.52 0.51 0.49 0.45 0.40 0.39 0.40 0.40 0.39 0.39 0.39 0.39 0.36 0.34 0.31 0.31 0.30 0.28 0.30 0.32 0.31 0.30 0.32 0.35 0.35 0.34 0.33 0.32
1.25 1.25 1.24 1.24 1.24 1.30 1.31 1.26 1.23 1.24 1.22 1.15 1.14 1.17 1.18 1.17 1.13 1.09 1.05 1.02 1.01 0.98 0.99 0.99 0.99 0.97 0.99 0.99 0.98 0.97 0.96 0.97 0.98 0.98 0.98 0.98 0.95 0.91 0.90 0.90 0.89 0.87 0.84 0.79 0.73 0.68 0.63 0.60 0.57 0.56 0.57 0.58 0.59 0.58 0.57 0.55 0.54 0.53 0.51 0.47 0.43 0.38 0.35 0.34 0.32 0.33 0.36 0.35 0.33 0.32 0.30 0.30 0.30 0.29 0.28 0.29 0.30 0.29 0.31 0.33 0.34 0.35 0.34 0.32 0.30
1.27 1.30 1.27 1.21 1.22 1.27 1.33 1.29 1.22 1.24 1.24 1.21 1.16 1.13 1.12 1.07 1.03 0.99 0.96 0.96 0.98 1.00 1.03 1.02 1.02 1.01 0.99 0.98 0.99 0.98 0.98 0.95 0.95 0.95 0.95 0.93 0.91 0.90 0.91 0.90 0.86 0.81 0.77 0.73 0.69 0.64 0.62 0.59 0.56 0.53 0.54 0.55 0.56 0.56 0.55 0.54 0.51 0.48 0.46 0.41 0.36 0.34 0.33 0.34 0.35 0.35 0.34 0.32 0.31 0.29 0.29 0.29 0.29 0.28 0.28 0.28 0.30 0.32 0.33 0.33 0.35 0.36 0.34 0.30 0.28
1.25 1.24 1.25 1.25 1.25 1.20 1.17 1.16 1.15 1.16 1.14 1.12 1.09 1.04 1.00 0.97 0.96 0.96 0.96 0.99 1.00 0.99 0.99 1.04 1.05 1.04 1.03 1.04 1.03 1.01 0.98 0.95 0.92 0.93 0.92 0.91 0.91 0.91 0.90 0.85 0.81 0.79 0.75 0.72 0.69 0.66 0.62 0.60 0.58 0.55 0.53 0.54 0.55 0.55 0.55 0.53 0.51 0.47 0.41 0.35 0.33 0.33 0.34 0.33 0.33 0.30 0.28 0.26 0.25 0.26 0.27 0.27 0.26 0.26 0.27 0.32 0.34 0.33 0.33 0.35 0.37 0.37 0.33 0.28 0.29
1.24 1.24 1.20 1.16 1.13 1.13 1.13 1.13 1.13 1.10 1.07 1.05 1.02 0.97 0.93 0.94 0.96 0.97 0.98 1.00 1.00 1.00 1.02 1.04 1.07 1.05 1.05 1.03 1.01 0.98 0.96 0.94 0.92 0.92 0.92 0.91 0.91 0.89 0.87 0.84 0.79 0.75 0.72 0.69 0.67 0.64 0.62 0.60 0.57 0.54 0.53 0.53 0.54 0.54 0.54 0.53 0.50 0.44 0.40 0.36 0.32 0.31 0.30 0.30 0.28 0.27 0.25 0.23 0.23 0.22 0.21 0.20 0.21 0.25 0.31 0.34 0.33 0.33 0.34 0.36 0.37 0.34 0.30 0.29 0.31
1.15 1.17 1.17 1.14 1.13 1.10 1.10 1.10 1.06 1.02 1.00 0.99 1.00 0.99 0.97 0.98 0.98 0.97 0.98 0.98 1.00 1.01 1.02 1.03 1.02 1.01 1.01 0.99 0.99 0.98 0.96 0.94 0.93 0.93 0.92 0.89 0.86 0.85 0.84 0.82 0.78 0.74 0.72 0.70 0.67 0.64 0.61 0.59 0.57 0.56 0.54 0.53 0.52 0.52 0.51 0.49 0.44 0.39 0.38 0.38 0.34 0.32 0.29 0.28 0.27 0.26 0.23 0.21 0.21 0.21 0.21 0.22 0.25 0.28 0.31 0.31 0.32 0.35 0.36 0.36 0.33 0.30 0.28 0.30 0.33
1.14 1.12 1.10 1.10 1.09 1.11 1.11 1.07 1.00 0.96 0.97 1.00 1.02 1.02 1.00 0.99 0.98 0.96 0.97 0.97 0.94 0.89 0.89 0.88 0.88 0.91 0.90 0.89 0.89 0.88 0.90 0.92 0.93 0.92 0.90 0.88 0.86 0.84 0.82 0.79 0.76 0.74 0.71 0.68 0.66 0.64 0.62 0.61 0.60 0.59 0.57 0.56 0.53 0.51 0.50 0.49 0.45 0.40 0.37 0.33 0.32 0.31 0.30 0.28 0.26 0.24 0.23 0.23 0.23 0.23 0.24 0.25 0.26 0.27 0.29 0.33 0.35 0.38 0.38 0.35 0.29 0.28 0.30 0.32 0.33
1.08 1.09 1.08 1.08 1.04 1.03 1.03 1.04 1.02 0.99 1.02 1.01 1.00 0.99 1.01 1.01 0.96 0.93 0.91 0.88 0.86 0.82 0.80 0.81 0.81 0.80 0.79 0.81 0.82 0.81 0.80 0.78 0.78 0.80 0.83 0.84 0.85 0.84 0.82 0.78 0.75 0.72 0.70 0.68 0.66 0.63 0.61 0.61 0.61 0.60 0.58 0.56 0.54 0.52 0.51 0.50 0.48 0.43 0.38 0.35 0.33 0.32 0.30 0.28 0.26 0.24 0.23 0.23 0.22 0.22 0.22 0.22 0.24 0.27 0.30 0.34 0.38 0.39 0.37 0.31 0.28 0.29 0.31 0.33 0.33
1.03 1.02 1.03 1.02 1.02 1.01 1.01 1.01 0.99 0.98 1.01 0.98 0.97 0.96 0.93 0.94 0.91 0.88 0.84 0.81 0.76 0.76 0.76 0.77 0.75 0.72 0.71 0.69 0.67 0.68 0.69 0.73 0.74 0.74 0.73 0.75 0.77 0.78 0.77 0.75 0.73 0.71 0.70 0.69 0.67 0.64 0.64 0.63 0.62 0.61 0.59 0.58 0.56 0.54 0.52 0.50 0.49 0.46 0.41 0.38 0.35 0.33 0.31 0.29 0.27 0.24 0.23 0.23 0.22 0.22 0.21 0.22 0.25 0.27 0.32 0.36 0.37 0.35 0.33 0.29 0.31 0.32 0.33 0.34 0.33
Wind_Speed
21 21 21 21 21 21 21 21 20 20 19 19 18 18 17 17 17 16 16 16 16 16 16 16 17 17 17 18 18 18 18 18 19 19 19 20 20 20 19 18 17 17 17 17 17 16 16 16 16 16 16 16 16 16 16 16 17 17 17 17 18 19 19 19 20 21 21 22 23 23 22 22 22 23 23 24 24 25 26 27 27 28 28 29 30
21 21 21 21 21 21 21 21 20 20 19 19 18 18 18 18 17 17 17 17 17 17 17 17 18 18 18 19 19 19 19 20 20 20 20 20 21 20 20 19 18 18 18 18 18 18 17 17 17 17 17 17 17 16 16 17 17 18 18 18 19 19 19 19 20 20 21 22 22 23 22 23 23 24 25 26 26 27 27 28 29 30 30 30 31
21 21 21 22 21 21 21 21 21 20 20 19 19 19 18 18 18 18 18 17 17 17 18 18 19 19 20 20 20 21 21 21 21 21 21 21 21 21 20 19 19 19 19 19 19 18 18 18 17 17 17 17 17 17 17 17 18 18 18 19 19 19 19 20 20 21 21 22 22 23 23 24 24 25 26 27 28 28 29 29 30 30 31 31 32
21 21 22 22 22 21 21 21 21 21 20 19 19 19 19 18 18 18 18 18 18 18 19 19 20 20 21 21 21 22 22 22 22 22 22 22 22 21 21 21 21 21 21 21 20 19 19 18 18 18 18 18 18 18 18 18 18 18 19 19 19 20 20 21 21 22 22 23 23 24 24 25 26 27 27 28 29 29 29 29 30 30 31 32 32
21 21 22 22 22 22 22 21 21 20 20 19 19 19 19 18 18 18 18 18 18 19 20 20 20 21 21 22 22 22 23 23 23 24 24 23 23 22 23 23 23 23 23 22 21 21 20 19 19 19 18 18 18 18 18 18 19 19 19 19 19 20 21 22 22 23 24 25 25 26 26 27 27 28 28 29 29 29 29 30 31 31 32 32 32
21 21 22 22 22 22 22 21 21 21 20 20 19 19 18 18 17 18 18 19 19 20 20 21 21 21 22 23 23 23 23 24 24 25 25 25 24 24 23 24 24 24 23 23 23 22 21 21 20 19 19 19 19 19 19 19 19 19 19 20 20 21 22 23 24 25 26 27 27 27 28 28 28 28 29 30 29 29 30 31 31 32 32 32 32
21 21 21 22 22 22 22 21 21 21 20 20 19 19 19 18 18 18 19 19 19 20 21 21 21 22 22 23 23 24 24 25 25 25 25 25 25 24 24 24 24 24 24 24 24 24 23 22 21 21 20 20 20 20 20 19 20 20 20 20 21 22 23 24 25 26 27 27 27 28 28 28 28 29 29 29 29 29 30 31 31 32 31 31 31
21 21 21 21 21 22 22 21 21 21 20 20 20 19 19 19 19 19 19 19 19 20 20 21 22 22 23 24 24 25 25 25 25 25 25 25 25 25 25 25 24 24 24 24 25 25 24 23 22 22 21 21 21 21 21 20 20 20 20 21 22 23 24 25 26 27 28 28 28 28 28 28 28 29 29 29 29 30 30 31 32 32 31 31 32
22 21 21 21 21 22 21 21 21 20 20 20 20 20 19 19 19 19 19 19 19 20 20 20 21 22 23 24 24 25 25 25 26 26 25 25 26 26 25 25 25 25 25 25 25 26 25 24 24 23 23 22 22 22 22 21 21 21 21 22 23 24 25 26 26 27 28 29 29 29 29 29 30 30 30 30 31 31 31 31 32 32 32 32 32
22 22 22 22 22 21 21 21 20 20 20 20 20 20 19 19 19 19 19 19 20 20 20 20 21 22 23 24 25 25 25 26 27 27 26 26 26 26 26 25 25 25 25 25 26 26 26 25 25 25 24 23 23 23 23 22 22 22 23 24 25 26 27 27 28 28 29 29 29 30 30 31 31 31 31 31 31 31 31 31 32 32 32 32 32
23 23 23 22 22 22 21 21 20 20 20 20 20 20 19 19 19 19 19 20 20 20 21 21 22 23 23 24 24 25 26 26 27 26 26 26 26 26 25 25 25 25 25 26 27 26 25 25 25 25 24 23 23 24 23 23 23 23 24 25 26 27 28 29 29 30 30 29 30 31 31 32 32 32 31 31 31 31 31 32 32 33 33 33 33
23 23 23 22 22 22 21 21 20 20 20 20 20 19 19 19 19 20 20 20 21 21 22 23 23 24 24 23 24 25 25 26 26 26 26 26 26 26 25 25 25 25 25 26 26 26 25 25 25 24 24 24 24 23 23 24 24 25 25 27 28 29 30 30 30 30 30 31 32 32 32 32 32 32 31 31 31 32 32 32 33 33 33 33 33
23 23 23 23 23 22 22 21 20 20 20 19 19 19 19 19 20 20 20 20 21 22 22 23 24 24 25 24 24 24 24 24 25 26 27 26 25 25 25 25 25 25 25 26 26 26 26 26 24 23 23 23 23 23 22 23 25 25 27 29 30 30 30 30 31 31 32 32 33 33 32 32 32 32 32 32 32 32 33 33 34 34 34 34 34
23 23 23 23 23 23 22 21 20 20 19 19 19 19 19 19 20 20 20 21 21 22 22 22 23 24 25 26 25 24 24 24 24 25 26 26 25 24 24 24 24 24 25 26 26 26 26 25 23 23 23 23 23 23 23 24 25 26 28 30 30 30 30 30 31 32 33 33 34 33 33 32 32 32 32 32 33 33 34 35 35 35 36 36 36
24 24 24 24 23 23 22 22 21 20 19 19 19 19 20 20 20 20 21 21 22 22 22 22 23 24 25 26 26 25 25 24 24 25 25 25 25 24 23 23 24 24 25 25 26 27 26 24 23 23 23 24 24 24 25 25 26 28 30 31 30 30 31 31 31 32 32 33 34 33 33 33 32 33 32 33 34 35 36 36 36 36 36 35 35
24 24 24 24 24 23 22 22 21 20 20 19 19 20 20 21 21 21 21 22 22 23 23 23 24 25 25 26 26 26 25 24 23 24 24 24 24 23 24 24 25 25 25 26 26 26 25 24 24 24 24 25 25 25 26 26 27 29 30 31 31 31 31 32 32 33 33 33 33 33 33 32 32 33 34 35 35 35 35 35 34 34 34 34 34
25 25 25 24 24 23 23 22 21 21 21 20 20 21 21 22 22 21 21 22 22 22 23 23 24 25 25 25 25 25 24 24 23 23 23 23 24 24 25 26 26 26 26 26 26 25 25 24 25 25 25 26 27 27 27 27 28 29 30 31 31 31 32 32 33 33 33 33 32 32 32 32 33 34 35 35 35 34 33 33 33 34 33 33 32
25 25 25 24 24 23 23 22 22 22 22 21 21 21 21 22 21 21 21 22 22 22 22 23 23 24 24 25 24 24 24 23 23 23 23 23 24 25 26 27 27 26 26 26 25 25 25 25 25 25 26 27 27 27 27 27 28 30 30 31 31 31 32 32 32 32 32 32 32 32 32 33 34 34 35 34 34 33 33 33 34 33 33 32 32
26 26 25 24 24 23 23 23 22 22 22 22 22 22 22 21 21 21 22 22 22 22 23 23 23 24 25 25 24 23 23 23 23 23 23 24 25 26 27 27 27 26 26 25 25 24 25 25 25 26 26 26 26 27 27 28 30 30 31 31 31 31 32 32 32 32 32 32 32 32 33 33 34 34 33 33 33 33 33 33 33 32 32 33 33
27 26 25 24 24 23 23 23 23 23 22 22 22 22 21 21 21 21 22 22 22 23 23 23 24 25 25 25 24 23 23 23 24 24 24 25 25 26 26 26 27 26 25 25 24 24 25 25 25 25 25 25 26 28 29 30 31 31 30 30 31 32 32 32 33 33 33 33 33 33 34 34 33 33 32 32 32 32 32 31 31 31 31 32 31
27 26 25 24 24 24 24 24 24 23 23 22 22 22 21 21 22 22 22 22 23 23 23 24 24 24 24 24 23 23 23 23 23 24 25 25 25 25 25 26 26 25 25 24 24 24 25 25 25 25 26 26 27 28 29 30 30 30 30 30 31 32 33 33 33 33 33 33 33 33 33 33 32 32 31 31 31 30 30 29 29 29 30 30 31
27 26 25 25 25 24 24 24 24 24 23 23 22 22 21 21 22 22 23 23 23 23 24 24 24 24 24 24 23 23 23 23 23 23 24 24 24 24 25 25 25 24 24 24 24 24 24 24 25 25 26 27 27 28 29 29 29 29 30 31 32 33 33 33 33 32 32 32 33 33 32 32 31 31 31 30 30 29 29 29 29 29 30 30 31
27 26 26 25 25 25 25 25 25 24 23 23 22 22 22 22 22 23 23 23 23 23 24 24 24 25 24 24 23 23 23 23 23 23 23 24 24 24 24 24 23 24 24 24 24 24 24 24 24 25 26 27 27 28 28 28 29 30 31 32 32 33 33 32 32 32 32 32 32 32 31 31 31 30 30 29 29 29 29 29 29 30 30 30 30
27 26 26 25 25 25 25 25 25 24 23 23 23 23 24 24 23 23 23 24 24 24 24 24 25 25 24 23 22 22 23 23 23 23 23 23 23 23 23 24 23 24 24 24 24 24 24 24 24 25 25 26 27 27 28 29 30 31 32 32 33 32 32 32 32 32 32 32 31 31 30 30 30 29 29 28 28 29 29 29 29 29 28 28 28
27 27 26 26 25 25 25 25 24 24 24 24 24 25 25 25 23 23 24 24 24 24 24 25 25 24 23 22 22 22 22 22 22 22 22 22 22 22 23 24 24 24 24 23 23 23 23 23 24 24 25 25 26 27 29 30 32 32 32 32 32 32 31 32 32 31 31 31 30 30 30 29 29 28 28 28 29 29 29 28 28 27 27 27 27
27 27 26 25 25 25 24 24 24 24 24 25 26 26 26 25 24 24 25 25 25 25 25 25 24 23 23 22 22 22 22 21 21 21 21 21 22 22 23 24 24 24 23 22 22 23 23 23 24 24 25 26 27 29 30 31 31 31 31 31 31 31 31 31 31 30 30 30 29 29 29 29 28 27 28 28 28 28 27 27 27 27 26 26 26
26 26 25 24 24 24 24 24 24 24 25 25 26 26 25 24 23 24 25 25 25 25 25 25 24 23 22 22 21 21 21 21 21 21 21 22 22 23 23 23 23 23 23 23 23 23 23 23 24 24 26 27 29 30 30 30 30 30 30 30 30 29 30 30 29 29 29 29 29 29 28 27 27 27 28 28 27 27 27 27 27 26 26 26 26
25 25 24 24 23 24 24 24 24 24 24 24 24 24 23 23 23 24 25 26 25 25 25 24 23 22 22 22 21 21 21 21 21 21 22 22 22 22 22 23 23 23 23 23 23 23 23 23 24 26 27 28 29 29 30 30 30 30 30 30 30 29 29 29 28 28 28 28 27 27 26 25 26 27 28 27 27 27 27 26 26 26 26 26 26
25 24 23 23 23 23 23 23 23 23 23 23 23 23 23 23 24 24 25 25 25 25 25 23 22 22 21 21 21 21 21 21 21 21 21 22 22 22 22 23 23 23 23 23 22 22 23 24 25 26 27 28 29 30 30 30 30 30 30 30 29 29 28 28 27 27 27 26 25 24 25 26 27 28 27 27 27 27 26 26 26 26 26 26 26
24 24 23 23 22 22 22 22 23 23 22 22 23 23 23 23 24 24 25 25 25 24 23 22 22 22 21 21 21 21 22 22 21 21 21 21 21 21 21 22 22 22 22 22 22 22 23 25 26 27 28 29 29 29 29 30 30 30 29 29 28 27 27 27 26 26 26 24 24 24 25 26 27 27 27 27 26 26 26 26 26 25 25 25 25
23 23 22 21 21 21 21 22 22 22 23 23 24 24 24 24 24 25 24 24 23 22 22 21 22 22 21 21 21 22 22 21 20 20 20 20 20 20 20 20 20 20 20 21 22 23 25 26 27 28 29 29 29 29 29 30 29 29 28 28 27 27 27 27 26 25 24 24 24 25 26 27 27 27 26 26 26 26 26 25 25 25 25 25 25
22 22 22 21 21 21 21 22 22 23 23 24 25 25 25 25 24 23 22 22 21 21 21 21 21 21 21 21 21 22 22 21 20 20 19 19 19 19 19 19 19 20 20 22 23 24 26 27 28 28 29 29 29 28 29 29 28 27 27 26 26 26 26 26 26 25 25 25 26 27 27 27 26 26 26 25 25 25 25 24 24 24 24 24 24
23 23 23 22 22 22 22 22 23 24 24 25 26 27 26 25 23 21 21 21 20 20 20 21 21 21 21 20 20 21 21 21 20 19 19 19 19 19 19 20 20 21 22 23 24 25 26 27 28 28 29 29 28 27 27 27 26 26 26 25 25 25 25 25 25 25 26 26 27 26 26 25 25 25 25 25 24 24 24 24 24 24 23 23 23
22 23 23 22 22 22 23 23 24 25 25 26 27 26 24 23 21 20 20 21 21 20 20 20 21 21 20 20 20 20 20 20 20 19 19 19 19 20 20 21 22 23 24 25 25 26 26 27 27 28 28 27 27 26 26 25 25 25 25 25 25 25 25 25 25 26 26 26 25 25 24 25 24 24 24 24 24 23 23 23 23 23 23 23 23
23 23 22 22 22 23 23 24 24 25 25 24 22 21 20 20 20 20 20 20 21 20 20 20 20 20 20 20 20 19 19 20 20 20 20 20 21 21 22 23 24 24 25 25 26 26 26 26 27 27 26 25 25 25 25 24 24 24 23 24 24 24 24 25 25 24 24 24 24 24 24 24 23 23 23 23 22 22 22 22 22 22 22 23 23
23 23 22 22 23 24 24 24 24 23 22 20 19 18 18 19 19 19 20 20 20 20 20 20 20 20 19 19 19 19 19 19 20 20 21 21 22 22 23 24 24 25 25 26 26 26 26 26 26 25 25 24 24 24 23 23 22 22 22 23 23 24 24 24 23 23 24 24 24 24 23 22 22 22 21 21 21 21 21 21 21 22 22 22 23
22 22 22 23 23 23 23 23 22 21 19 18 18 18 18 18 18 19 19 19 19 19 19 19 19 19 19 19 19 19 19 20 20 20 21 22 23 23 23 24 24 25 25 25 25 24 24 24 24 24 23 22 22 22 21 21 21 21 22 22 22 23 23 23 23 23 23 23 22 22 21 21 20 20 20 20 20 20 21 21 21 22 22 22 22
22 22 22 22 21 21 20 20 19 19 18 18 19 19 19 19 19 19 18 18 18 18 19 19 19 19 19 19 19 19 19 20 20 21 22 22 23 23 24 24 24 25 25 24 24 23 23 22 22 21 21 20 20 19 19 20 20 20 20 20 20 20 21 21 22 22 21 21 20 20 19 19 19 19 19 19 19 20 20 21 21 21 21 22 22
21 21 21 20 20 20 19 19 19 18 18 18 18 19 19 19 19 18 18 18 18 18 18 19 19 19 19 19 19 20 20 20 21 21 22 22 23 23 24 24 24 24 24 23 23 22 22 21 20 20 19 19 19 19 19 19 19 19 19 19 19 19 20 20 20 20 19 19 19 19 18 18 18 18 18 18 19 19 20 20 20 21 21 21 21
21 21 20 20 20 20 19 19 19 19 19 18 19 19 19 19 19 18 18 18 18 18 19 19 19 19 20 20 20 20 20 21 21 22 22 23 23 23 24 24 24 24 23 22 21 20 20 19 19 18 18 18 18 18 18 17 17 17 17 17 18 18 19 19 19 19 18 18 18 18 17 17 17 17 18 18 18 19 19 19 20 20 20 21 21
22 22 21 20 20 19 19 19 19 19 19 19 19 19 19 19 19 18 18 19 19 19 19 19 19 19 20 20 20 20 21 21 21 22 22 23 23 22 22 23 22 22 22 21 20 19 18 17 17 17 17 17 16 16 15 15 15 15 16 16 16 17 18 18 18 18 17 17 17 17 16 16 16 17 17 17 18 18 18 19 19 20 20 20 21
21 21 21 20 19 19 19 19 19 18 18 18 19 19 19 19 18 18 19 19 19 19 19 19 19 19 19 19 20 21 21 21 22 22 22 21 21 21 21 21 21 20 19 18 17 16 16 16 16 16 17 16 15 14 14 15 15 16 16 16 16 17 17 17 17 17 16 16 16 16 16 16 16 16 16 17 17 18 18 19 19 19 20 20 20
20 20 20 20 19 18 18 18 18 18 18 18 18 18 18 18 18 18 18 19 19 19 18 18 18 19 19 19 20 21 21 22 22 22 22 21 21 21 20 20 19 18 17 17 16 16 15 15 15 15 15 14 14 14 14 15 15 15 16 16 16 17 17 17 17 16 16 16 16 16 16 16 16 16 16 16 17 17 18 18 18 19 19 19 19
19 19 19 19 19 19 18 18 18 18 18 18 18 18 18 18 18 18 18 18 18 18 18 18 18 19 19 20 20 21 22 22 22 22 21 21 20 20 19 18 17 16 16 16 15 15 14 14 14 14 14 14 14 14 14 15 16 16 16 16 16 16 16 16 16 16 15 15 16 16 16 16 16 16 16 16 17 17 17 17 17 18 18 19 19
19 19 18 18 18 18 18 18 18 18 18 17 17 17 17 18 18 18 18 18 18 18 18 18 18 19 19 20 21 22 22 22 22 21 20 20 19 19 18 17 16 16 15 15 14 13 12 12 12 13 13 13 14 14 14 15 15 16 16 16 15 15 15 15 15 15 15 15 16 16 16 16 16 16 16 16 16 16 16 16 17 17 18 18 18
18 18 18 18 18 18 18 18 17 17 17 17 17 17 18 18 18 18 18 18 18 18 18 18 19 19 20 20 21 21 21 21 21 20 19 18 18 18 17 16 16 15 14 14 13 12 12 12 12 12 13 13 13 14 14 14 15 16 16 16 15 14 14 14 15 15 15 16 16 16 16 16 16 16 15 15 15 15 15 16 16 16 17 17 18
18 18 18 18 18 17 17 17 17 17 17 17 17 18 18 18 17 17 18 18 18 18 19 19 19 19 20 20 20 20 20 20 19 19 18 17 17 17 17 16 16 15 14 13 13 12 12 12 12 12 13 13 14 14 14 15 15 16 16 15 14 14 14 15 15 16 16 16 16 16 16 16 16 15 15 15 14 14 15 15 15 16 16 17 17
18 18 18 17 17 17 17 17 17 17 18 18 18 18 17 17 17 17 17 18 18 19 20 20 20 20 20 20 20 19 19 19 18 18 17 17 17 17 16 16 15 15 14 13 13 12 12 12 12 12 13 13 14 14 14 15 15 15 15 14 14 14 15 15 15 16 16 16 16 15 15 15 15 15 14 14 14 14 14 15 15 15 16 17 17
17 17 17 17 17 17 17 17 17 18 18 18 17 17 17 17 17 17 18 18 18 19 20 20 20 20 20 19 19 19 18 18 18 18 17 17 17 17 17 16 15 15 14 14 13 12 13 13 13 13 13 13 13 13 14 15 15 15 14 14 14 14 15 15 15 16 16 16 16 15 15 15 15 15 14 14 14 14 14 14 15 15 15 16 17
16 16 17 17 17 17 17 17 17 17 17 17 17 17 17 17 18 18 18 18 19 19 19 19 19 19 18 18 17 17 17 17 17 17 17 17 18 18 17 16 15 15 14 14 13 12 13 13 12 12 13 13 13 14 15 15 15 14 14 14 14 15 15 15 15 16 16 16 16 16 15 15 15 14 14 14 14 14 14 14 14 14 15 16 17
15 16 16 16 16 16 16 17 17 17 17 17 17 17 18 18 18 18 18 18 18 18 18 18 18 17 17 17 16 16 16 16 16 16 16 16 16 16 16 16 15 15 14 13 13 13 13 13 13 13 14 14 14 14 15 14 14 14 14 14 15 15 15 16 16 16 16 16 16 16 15 14 14 14 14 14 14 14 14 14 14 14 15 15 16
Wind_Direction
221 222 222 223 224 225 226 227 229 230 232 233 237 240 243 246 249 251 255 258 260 263 266 270 273 275 277 279 280 282 283 283 285 287 287 288 290 292 291 286 286 295 300 303 304 302 297 293 290 285 283 285 289 289 289 290 291 292 292 292 292 293 294 293 294 297 298 297 297 297 295 294 293 292 292 291 290 288 287 288 288 289 290 292 292
223 222 222 223 223 224 225 227 229 230 231 234 238 241 244 247 249 252 256 258 261 264 267 270 274 275 277 279 280 281 282 282 284 285 285 286 287 289 288 283 283 291 296 297 299 299 297 292 289 285 282 282 285 287 287 289 290 292 292 292 293 293 294 294 294 296 299 299 298 297 296 294 294 294 294 294 293 292 291 290 291 291 292 292 292
224 223 222 223 223 223 224 226 228 229 231 235 239 241 245 248 250 253 255 258 261 265 268 271 273 276 277 279 279 280 281 281 282 282 283 285 284 285 285 281 282 290 293 293 295 297 296 292 288 285 282 280 282 284 285 287 289 291 291 291 292 293 294 294 295 297 299 300 300 299 297 296 295 296 295 294 293 293 293 293 293 292 292 292 292
224 224 223 223 223 223 223 225 227 229 233 237 240 242 246 248 251 253 256 259 262 265 269 271 273 275 276 277 278 279 279 279 279 280 282 283 282 281 281 279 282 288 290 290 291 294 295 291 287 284 282 280 280 282 283 285 288 289 290 290 291 293 295 295 296 298 300 300 301 300 298 296 295 295 295 294 294 294 293 294 294 294 293 293 292
224 225 224 224 223 222 223 224 227 230 234 238 241 243 246 248 252 254 257 260 262 265 268 271 272 274 275 277 278 278 278 278 277 277 279 282 281 279 278 278 281 285 287 288 288 290 292 289 285 283 281 279 279 280 281 283 285 287 288 289 290 293 294 295 297 298 299 300 301 300 299 297 296 295 295 295 295 294 294 295 296 296 296 294 293
224 225 225 224 223 223 224 226 229 232 235 239 241 243 245 248 251 255 258 261 262 265 267 270 273 275 276 278 278 278 278 278 277 276 277 279 280 279 278 279 281 283 285 286 286 288 289 287 283 281 280 277 277 278 279 280 283 285 287 288 290 292 294 296 298 299 299 300 301 301 300 298 297 296 296 296 295 295 295 296 297 297 296 295 293
224 224 225 224 223 224 225 227 230 233 236 239 241 243 245 248 251 254 258 261 264 266 268 271 274 277 278 278 278 278 278 277 276 275 276 277 277 277 277 278 280 281 283 284 285 286 288 286 281 279 278 276 276 276 277 279 281 284 286 288 290 293 295 297 299 300 300 300 300 301 301 300 299 298 298 297 295 296 297 297 297 297 296 294 294
224 224 224 223 224 225 227 229 231 234 238 240 241 243 246 249 252 255 257 261 266 269 272 275 277 279 279 279 279 279 277 276 276 274 274 275 275 275 276 277 279 281 282 283 284 285 287 286 281 278 277 276 275 275 276 277 280 283 286 289 292 294 296 298 299 301 301 300 300 301 301 301 302 301 299 298 296 296 297 297 297 297 296 294 294
225 224 222 223 224 225 227 230 233 235 238 240 242 244 247 251 254 256 259 264 269 272 276 279 280 281 281 280 280 280 278 277 276 274 273 274 275 275 275 276 278 279 281 282 283 285 287 286 280 276 275 275 274 274 275 276 279 283 287 291 293 295 296 297 299 301 301 299 299 300 300 301 302 301 299 298 297 297 297 297 297 296 296 295 294
225 223 221 222 223 225 227 230 233 236 238 241 244 246 249 253 256 260 264 268 272 275 279 281 283 284 284 283 282 282 280 278 276 274 274 274 274 274 274 275 276 278 279 281 282 284 286 285 281 276 274 273 273 273 274 274 276 281 287 292 294 295 296 297 298 300 300 298 299 300 300 300 300 299 298 298 297 297 298 297 297 296 296 295 295
223 223 221 220 221 223 227 230 233 236 239 241 245 247 251 255 259 263 267 271 274 276 280 282 283 286 288 287 285 283 282 280 277 275 275 275 274 274 273 274 275 276 278 280 282 284 285 285 283 278 275 275 274 273 273 273 275 279 286 292 294 295 296 296 297 299 299 298 300 300 300 299 299 298 298 298 298 298 298 298 297 297 297 296 296
221 222 221 220 220 222 227 231 234 237 240 242 246 249 253 257 261 265 269 272 275 277 281 283 284 286 289 290 289 286 283 281 277 274 275 275 274 273 274 273 274 275 278 280 282 283 283 284 282 278 276 276 275 274 274 274 275 278 286 293 295 295 295 295 296 298 298 299 300 300 300 299 298 298 298 298 299 299 298 298 297 297 297 297 296
221 220 220 219 220 223 227 231 234 237 241 245 248 251 255 258 262 265 269 273 276 278 282 285 286 287 288 290 291 289 285 282 277 274 274 274 272 273 274 274 274 276 278 280 281 282 283 283 280 277 277 276 276 275 275 276 277 279 286 293 295 295 295 295 296 296 297 298 299 299 299 299 298 298 299 299 300 299 298 298 298 297 297 296 296
220 219 219 219 221 224 228 231 234 238 242 246 250 252 255 258 261 265 270 274 277 278 281 285 288 288 288 289 291 289 286 282 278 275 274 272 271 272 274 275 275 277 279 280 281 282 282 280 278 277 276 276 276 276 275 278 280 282 288 293 295 295 295 295 296 296 296 298 298 298 298 298 297 298 299 299 299 298 298 298 298 297 297 296 296
220 219 219 221 223 226 228 232 236 240 243 247 250 252 255 258 261 266 271 275 278 280 282 286 289 289 289 289 289 287 285 282 279 277 274 271 269 271 273 274 275 277 279 281 282 281 279 277 277 277 275 274 276 277 277 279 282 285 289 293 294 295 296 296 296 296 297 298 298 298 298 298 297 298 298 299 299 299 299 298 298 298 297 297 298
220 220 221 223 225 227 230 233 238 241 244 247 250 252 255 258 263 267 270 275 280 283 284 287 290 290 290 290 289 286 284 281 279 278 275 271 270 271 273 274 275 277 279 280 281 281 277 275 275 276 275 275 276 278 279 280 283 286 290 292 293 295 296 296 296 297 298 299 298 298 298 297 297 297 298 298 299 299 299 298 298 298 298 298 298
221 222 223 225 227 229 232 235 239 241 245 248 250 253 257 260 264 267 271 275 280 283 285 288 291 291 291 291 289 286 283 281 279 277 274 271 271 273 274 274 274 276 279 280 281 279 275 273 274 275 276 276 278 279 279 281 285 289 291 293 293 294 296 297 298 297 298 298 298 298 297 297 297 297 298 298 298 299 299 298 298 298 297 297 298
222 222 224 226 228 231 234 236 239 241 245 248 251 255 259 262 265 269 273 277 281 284 286 290 292 291 292 292 289 285 283 281 278 277 275 271 270 273 274 273 273 275 279 280 279 276 273 272 273 275 277 278 278 279 279 282 287 290 292 293 293 294 296 298 299 299 299 299 298 297 297 297 298 298 299 298 297 297 297 296 297 298 297 298 298
223 224 226 228 230 232 234 236 238 241 245 248 251 255 259 261 265 270 274 278 283 285 287 290 291 291 292 292 289 285 283 281 278 277 275 272 273 275 275 273 272 275 278 279 277 274 273 273 273 275 277 278 279 280 281 285 288 291 292 293 293 295 297 298 298 299 299 298 298 298 297 298 299 299 299 297 296 297 297 296 297 297 297 298 298
224 225 227 229 231 233 235 236 238 241 245 248 251 254 257 262 266 271 274 278 283 285 287 289 292 292 292 292 288 284 283 283 279 277 276 275 275 275 274 273 273 275 277 277 276 274 274 274 274 275 276 278 280 282 284 287 289 291 292 292 294 296 297 298 298 298 298 298 298 298 298 299 299 299 298 297 297 298 298 298 298 298 298 298 299
223 224 227 229 230 232 235 236 238 242 246 249 251 254 259 264 269 272 276 279 282 284 286 289 292 293 293 292 287 283 283 283 281 278 277 276 275 275 274 274 274 275 277 277 277 276 275 275 275 275 277 280 283 284 285 288 290 290 291 293 295 297 297 297 297 298 298 299 299 299 299 300 299 299 298 298 298 299 299 300 300 299 299 300 301
221 223 225 228 230 232 234 237 239 243 246 249 252 256 260 267 272 275 277 279 281 282 284 288 291 292 292 290 287 285 284 284 283 280 277 277 276 275 274 273 273 275 278 278 278 278 276 276 276 277 279 282 284 284 286 288 289 290 292 295 297 297 297 297 298 298 299 299 299 299 299 299 299 299 298 298 298 298 299 299 299 299 299 299 301
220 222 224 227 230 232 234 236 240 243 247 250 254 259 264 270 274 276 277 279 281 282 283 286 289 291 291 289 287 287 286 285 283 280 278 277 276 274 273 273 274 277 280 280 279 278 279 279 279 281 282 284 284 285 287 289 290 292 294 296 297 297 297 297 298 298 299 299 299 299 300 299 299 299 298 298 297 298 299 298 298 299 299 300 301
219 221 224 226 229 232 235 237 241 245 248 253 257 262 268 273 275 275 277 279 281 282 283 286 288 289 289 288 287 287 287 285 283 281 279 278 277 274 272 273 275 278 281 282 280 279 281 281 281 283 284 285 285 286 288 290 292 294 296 296 296 296 297 297 298 298 298 298 299 299 300 300 300 299 298 297 297 298 298 299 299 300 301 302 302
218 221 224 227 230 233 236 239 242 247 251 256 261 266 271 275 274 274 277 279 280 282 284 285 286 286 286 286 287 287 287 285 283 282 280 278 276 274 273 273 275 279 282 282 280 281 283 283 283 285 286 286 287 288 290 292 294 295 296 296 296 296 297 298 298 298 298 298 299 299 299 299 299 299 297 298 298 299 299 300 300 300 301 302 302
218 221 225 228 230 233 237 240 244 249 255 261 266 270 275 277 274 273 276 278 279 282 284 285 284 284 285 287 287 287 286 284 283 282 281 279 277 275 274 275 277 280 281 281 281 283 285 285 286 287 288 289 290 291 293 294 295 296 296 296 296 296 297 298 298 298 298 298 298 299 299 299 298 297 298 299 300 300 300 300 300 300 301 301 302
218 222 225 228 232 236 240 244 248 254 261 267 270 273 277 278 275 273 274 277 279 281 283 283 283 284 285 286 286 286 285 284 282 281 280 279 277 276 276 276 277 278 280 282 283 285 285 286 288 289 290 290 291 293 295 296 296 297 298 298 297 297 298 298 298 298 298 298 298 299 300 299 297 297 299 300 300 300 300 300 300 300 300 301 302
219 223 226 230 236 241 245 249 254 260 265 270 273 275 277 277 275 274 276 277 278 280 281 282 282 283 284 284 284 284 284 283 282 281 280 279 278 277 277 278 277 278 280 282 284 285 286 287 289 290 291 292 293 295 296 296 297 297 297 298 298 297 298 298 297 297 298 298 298 298 298 298 298 299 300 300 300 300 300 300 300 300 301 301 302
220 224 229 234 240 245 248 252 257 262 267 270 273 276 277 276 275 276 279 279 278 279 280 280 281 282 282 282 282 282 283 283 282 281 281 280 278 278 279 279 280 280 280 282 284 285 287 289 291 292 293 294 295 296 296 296 296 296 296 297 297 297 297 297 297 298 299 298 297 296 297 298 300 301 301 300 300 300 300 301 300 300 301 301 301
223 227 232 237 241 245 249 254 259 264 267 269 270 273 276 276 277 278 279 278 279 280 281 281 281 282 281 280 281 282 284 284 283 282 282 281 280 280 280 280 281 280 279 281 284 286 288 290 292 293 294 294 295 296 295 295 295 295 295 296 296 296 297 298 299 300 300 299 297 297 298 300 301 301 301 300 300 300 301 301 301 301 301 301 301
226 229 233 237 241 244 250 256 261 265 267 268 268 270 273 276 279 280 277 276 278 280 281 282 282 281 280 279 280 283 284 284 282 282 283 283 283 283 283 281 281 281 281 283 285 288 290 292 293 294 295 296 296 296 296 295 295 295 296 296 295 296 297 299 301 303 301 299 299 299 300 301 301 301 300 300 300 301 301 302 301 301 301 302 302
228 230 233 237 243 248 253 258 262 266 269 269 268 269 271 274 278 278 276 275 277 279 280 281 281 280 279 277 278 281 283 283 282 282 282 282 283 284 284 283 284 285 286 287 288 289 292 294 295 295 296 297 297 297 297 297 297 297 297 297 298 300 301 302 303 304 302 301 301 301 300 300 300 300 300 301 301 302 302 302 302 302 302 302 303
231 233 236 242 248 253 256 261 265 267 269 271 271 270 270 272 273 272 272 275 277 278 280 281 281 279 278 277 278 280 281 281 282 282 281 280 281 282 284 286 287 288 289 289 290 292 294 295 296 296 297 297 296 297 298 299 300 301 301 301 302 303 303 304 304 304 303 301 301 300 299 299 300 300 301 302 302 302 302 303 303 303 303 303 304
234 236 240 245 251 255 259 264 267 269 271 274 273 270 267 267 267 267 269 273 275 277 279 279 279 278 278 278 279 279 279 279 280 280 279 279 280 282 284 287 289 290 290 291 292 294 296 296 297 298 298 298 298 298 299 300 301 302 302 303 304 303 302 303 304 304 303 301 300 300 300 301 301 301 301 302 302 302 303 303 304 304 304 304 305
239 242 245 249 254 259 262 265 268 270 272 273 270 266 264 265 266 268 270 272 274 275 276 276 277 278 278 278 279 279 278 278 279 278 278 279 280 283 286 288 289 291 292 292 294 295 296 297 298 299 300 300 300 300 300 301 301 302 302 303 304 304 303 304 305 305 304 302 300 300 301 301 301 301 301 302 302 303 304 304 305 305 306 306 306
244 247 249 253 257 260 262 264 268 269 268 266 265 265 265 266 267 270 272 272 273 273 274 274 275 276 277 278 279 279 279 279 279 279 279 281 282 285 288 289 290 292 293 294 295 296 296 297 298 299 299 300 300 301 302 302 303 303 303 303 303 304 305 305 305 305 305 303 302 301 301 301 301 301 302 302 303 304 305 306 306 307 307 307 307
246 249 251 255 258 260 262 265 266 263 260 261 264 265 265 266 268 270 272 272 273 274 275 273 273 274 276 277 278 278 279 280 280 281 282 283 285 287 289 291 293 294 295 296 296 296 296 297 298 299 299 298 299 301 303 304 305 305 306 306 306 307 307 307 305 304 305 305 305 304 302 302 302 303 303 304 305 306 306 307 308 309 308 309 309
248 250 251 254 257 259 262 264 261 257 258 263 265 265 267 268 269 270 271 271 273 276 276 274 274 275 276 275 275 276 277 279 280 281 283 284 286 287 290 292 294 295 295 295 295 296 297 298 298 298 297 297 298 300 302 304 305 305 307 309 310 311 311 310 308 306 305 305 306 305 305 304 304 304 305 306 306 307 308 309 310 310 310 311 311
248 249 250 252 254 256 258 258 257 258 261 264 265 267 268 269 270 272 272 272 274 277 277 276 276 276 276 275 274 275 276 278 280 281 283 284 286 288 290 293 294 295 295 295 296 297 298 298 297 297 297 297 299 299 301 303 304 305 307 310 312 313 314 313 312 310 308 307 307 307 307 307 306 306 307 307 308 309 311 312 312 312 312 312 313
250 250 250 251 253 255 256 256 257 259 261 263 265 267 268 269 271 272 272 273 275 278 278 277 276 276 275 274 274 275 277 279 280 282 284 286 287 289 291 292 292 293 294 295 296 297 297 296 297 297 297 298 299 300 301 304 306 307 309 311 314 316 318 317 316 314 313 312 312 311 309 308 308 308 308 309 310 312 313 313 314 314 314 314 314
251 250 250 252 253 254 255 256 257 258 261 263 265 266 268 270 271 271 272 273 275 276 277 277 277 276 276 274 273 275 278 280 282 284 286 287 289 290 290 290 291 292 293 293 294 294 294 295 297 297 297 298 300 300 302 306 309 310 312 315 317 319 320 319 319 318 317 316 316 314 312 310 310 310 311 312 313 314 315 315 315 315 316 316 316
250 249 249 251 253 253 254 257 259 260 261 264 266 267 268 269 270 271 272 272 273 274 276 277 278 278 277 276 274 275 279 282 283 285 287 288 289 290 289 288 290 291 292 292 292 293 293 295 297 297 298 300 301 302 305 309 311 311 313 317 319 320 321 321 322 322 322 321 319 317 314 313 312 313 314 315 315 316 316 316 317 317 317 317 317
248 248 249 250 253 255 256 258 260 261 263 265 266 267 268 269 270 271 272 272 274 275 276 277 278 277 277 278 277 278 281 283 284 285 286 287 288 288 287 286 287 289 289 290 290 291 293 295 296 298 300 301 302 303 307 310 311 311 312 315 317 319 320 321 322 324 324 322 320 318 316 315 315 315 316 316 317 317 318 318 319 320 320 321 321
247 248 249 251 254 257 258 259 260 261 263 264 264 263 264 267 269 271 272 273 274 275 276 276 277 277 277 278 279 280 282 284 285 285 286 286 286 286 285 284 284 286 287 288 288 289 290 292 294 298 301 302 302 303 305 307 309 310 311 312 314 317 319 320 321 322 322 321 320 319 317 317 317 317 317 318 319 319 321 322 322 323 325 325 325
246 248 249 251 253 255 257 258 259 259 260 262 262 262 264 267 269 271 272 273 274 275 275 276 277 276 277 278 279 281 283 284 283 283 284 284 283 283 282 281 282 282 284 286 288 288 289 291 293 296 298 299 301 303 304 306 308 309 310 311 312 315 318 319 318 318 319 319 320 320 320 319 319 318 319 320 321 321 323 325 326 327 328 329 328
247 248 249 250 252 254 255 256 256 257 258 261 262 263 265 268 269 271 271 272 274 275 276 277 277 278 279 280 281 282 284 283 281 280 281 281 280 279 278 278 279 280 280 282 285 287 289 291 293 294 295 299 303 305 305 307 309 310 310 310 310 311 313 314 314 315 318 320 321 321 321 321 321 320 320 321 321 322 324 326 327 329 330 331 332
247 247 248 250 252 253 253 253 254 255 258 261 263 265 267 268 269 271 271 272 274 277 278 279 279 280 281 282 282 283 284 282 280 278 279 279 278 278 277 276 276 277 278 279 281 284 287 290 291 292 294 297 301 304 305 307 308 309 309 310 310 309 311 312 314 316 317 318 319 320 321 322 322 320 320 321 321 322 324 326 328 330 333 334 335
245 246 248 249 251 251 252 253 255 256 258 261 262 265 267 267 268 270 272 273 275 277 277 278 279 280 281 282 282 282 283 281 279 277 276 275 274 275 276 275 273 273 275 277 279 281 283 285 289 293 294 295 297 301 303 305 306 307 308 308 308 309 312 313 313 315 316 316 317 318 319 321 321 321 320 320 321 321 324 325 327 330 333 336 336
245 246 248 249 251 252 253 255 256 257 259 260 261 264 267 268 268 269 270 271 274 275 276 276 277 278 279 280 280 280 280 278 276 274 273 272 271 272 273 272 271 271 272 274 276 278 281 283 287 291 294 296 298 301 303 303 304 305 305 305 306 309 312 312 312 314 315 315 315 316 317 319 321 320 320 321 320 320 322 324 326 329 333 335 336
248 249 250 251 253 253 254 255 256 258 260 261 262 262 263 264 266 267 268 270 274 277 278 278 278 279 280 280 280 279 278 276 274 272 271 270 269 269 269 268 267 268 269 270 273 277 281 284 287 291 294 295 298 300 301 301 302 302 302 303 306 309 311 311 311 312 312 313 313 314 315 317 318 318 320 321 321 319 320 322 325 329 331 333 335
250 250 251 252 254 255 255 256 257 258 260 261 261 260 261 264 266 268 270 273 276 278 279 279 279 279 281 282 281 280 278 276 275 274 272 270 268 266 265 264 264 264 265 267 271 276 280 283 287 292 295 296 296 297 297 298 298 298 299 301 305 308 309 309 309 310 310 310 311 312 313 314 314 315 317 320 320 319 319 321 324 327 329 331 334